Overview Statistics Trail Chart Weather Telemetry Raw packets
 

This is the latest recevied weather packets stored in our database for station/object LY3FF-10. If no packets are shown the sender has not sent any weather packets the latest 10 day(s).

<< 7 8 9 10 11 12 13 >>
Time Temp. Humidity Pressure Rain* Wind** Luminosity Snow
1788449800 21.11° C 63% 993.6 hPa - - - -
1788448920 21.67° C 63% 993.7 hPa - - - -
1788448024 20.56° C 64% 993.8 hPa - - - -
1788447274 23.33° C 62% 993.8 hPa - - - -
1788446402 23.33° C 63% 993.8 hPa - - - -
1788445675 22.22° C 61% 994 hPa - - - -
1788444880 22.22° C 62% 993.9 hPa - - - -
1788444000 21.67° C 63% 994 hPa - - - -
1788443170 21.67° C 65% 994.1 hPa - - - -
1788442394 20.56° C 67% 994.2 hPa - - - -
1788441575 20° C 68% 994.2 hPa - - - -
1788440850 19.44° C 69% 994.4 hPa - - - -
1788439980 18.33° C 71% 994.6 hPa - - - -
1788439240 18.33° C 71% 994.7 hPa - - - -
1788438410 19.44° C 67% 994.6 hPa - - - -
1788437675 20.56° C 61% 994.7 hPa - - - -
1788436884 21.67° C 57% 994.4 hPa - - - -
1788436090 22.22° C 56% 994.4 hPa - - - -
1788435210 28.33° C 59% 994.5 hPa - - - -
1788434475 32.78° C 60% 994.7 hPa - - - -
1788433660 21.67° C 61% 994.8 hPa - - - -
1788432770 21.11° C 62% 994.9 hPa - - - -
1788431935 21.11° C 63% 995 hPa - - - -
1788431203 21.11° C 61% 995.1 hPa - - - -
1788430348 20.56° C 59% 995.1 hPa - - - -

* Rain since midnight (hover to see other rain measurements)
** Current wind speed in m/s (hover to see current wind gust speed)